User: anonymous   Login
Location: Cabeza de los Veneras
(40.2000°N, 5.2000°W)
Time: 09:49:49
(UTC+00:00)
Language:

Tiangong - Orbit

View from above orbital plane
View from above orbital plane
View from above satellite
View from above satellite

Ground track
Ground track

The orbit data is extracted from the following two-line orbital elements,

1 48274U 21035A   25312.83194167  .00042043  00000-0  49295-3 0  9993
2 48274  41.4657 222.5840 0005261 347.1900  12.8804 15.60711560258735
Epoch (UTC): 08 November 2025 19:57:59
Eccentricity: 0.0005261
inclination: 41.4657°
perigee height: 382 km
apogee height: 389 km
right ascension of ascending node: 222.5840°
argument of perigee: 347.1900°
revolutions per day: 15.60711560
mean anomaly at epoch: 12.8804°
orbit number at epoch: 25873

The dashed part of the orbit path shows where the satellite is in the earth's shadow,  

DLR